Flag for Greenland Weather past 2 weeks in Danmarkshavn, Greenland

Now
-5 °F

Clear.


Feels Like: -14 °F
Forecast: -15 / -1 °F
Wind: 3 mph from South

Location: Danmarkshavn

Current Time: Jan 29, 2015 at 6:49:07 AM

Latest Report: Jan 29, 2015 at 6:00 AM


Visibility: 31 mi

Pressure: 30.09 "Hg

Humidity: N/A

Dew point: N/A

Location of DanmarkshavnLocation

Historic Weather in Danmarkshavn — Graph

°F

Danmarkshavn temperature yesterday

Maximum temperature yesterday: 19 °F (at 9:00 AM)
Minimum temperature yesterday: 6 °F (at 11:00 PM)
Average temperature yesterday: 15 °F

Past Weeks' High & Low Weather Summary

 TemperatureHumidityPressure
High29 °F (Jan 26, 6:00 PM)97% (Jan 26, 2:00 PM)30.17 "Hg (Jan 26, 2:00 PM)
Low-23 °F (Jan 17, 10:00 PM)49% (Jan 15, 2:00 PM)29.18 "Hg (Jan 26, 10:00 AM)
Average2 °F79%29.70 "Hg
* Reported Jan 14 5:00 AM — Jan 29 5:00 AM, Danmarkshavn, Weather by CustomWeather, © 2014

Note: Actual official high and low records may vary slightly from our data, if they occured in-between our weather recording intervals... More about our weather records

Advertising

Danmarkshavn weather history for previous 24 hours

 ConditionsComfort  
Time TempWeatherWind HumidityBarometerVisibility
5:00 AM
Jan 29
-4 °FClear.5 mph81%30.07 "Hg31 mi
4:00 AM0 °FClear.2 mph83%30.05 "Hg31 mi
3:00 AM-2 °FClear.1 mph88%30.03 "Hg31 mi
2:00 AM5 °FPassing clouds.6 mph68%30.02 "Hg31 mi
1:00 AM9 °FSunny.9 mph82%30.01 "Hg31 mi
12:00 AM8 °FSnow flurries. Clear.12 mph91%30.00 "Hg28 mi
11:00 PM
Jan 28
6 °FSnow flurries. Passing clouds.7 mph90%29.99 "Hg11 mi
10:00 PM10 °FOvercast.9 mph92%29.98 "Hg19 mi
9:00 PM11 °FSnow flurries. Overcast.8 mph93%30.00 "Hg11 mi
8:00 PM11 °FSnow flurries. Overcast.10 mph94%30.00 "Hg12 mi
7:00 PM9 °FSunny.8 mph92%30.01 "Hg13 mi
6:00 PM11 °FPassing clouds.9 mph91%30.00 "Hg14 mi
5:00 PM15 °FPartly sunny.10 mph88%30.01 "Hg22 mi
4:00 PM15 °FOvercast.10 mph90%30.02 "Hg22 mi
3:00 PM14 °FOvercast.10 mph90%30.03 "Hg16 mi
2:00 PM15 °FOvercast.5 mph88%30.02 "Hg17 mi
1:00 PM15 °FOvercast.3 mph87%30.01 "Hg19 mi
12:00 PM15 °FScattered clouds.5 mph87%30.01 "Hg19 mi
11:00 AM15 °FCold.5 mph90%30.00 "Hg19 mi
10:00 AM17 °FDrizzle. Cloudy.6 mph88%29.98 "Hg17 mi
9:00 AM19 °FSnow flurries. Cloudy.10 mph83%29.97 "Hg8 mi
8:00 AM19 °FLight snow. Cloudy.21 mph87%29.93 "Hg2 mi
7:00 AM19 °FDrizzle. Cloudy.21 mph84%29.91 "Hg2 mi
6:00 AM19 °FSnow flurries. Overcast.21 mph85%29.89 "Hg2 mi
Weather by CustomWeather, © 2014

See weather overviewHow to use our weather pages